Regional Weather Roundup
Issued by NWS

Home | Current Version | Previous Version | Text Only | Print | Product List | Glossary Off
Versions: 1 2 3 4 5 6 7 8 9 10 11 12 13 14 15 16 17 18 19 20 21 22 23 24 25 26 27 28 29 30 31 32 33 34 35 36 37 38 39 40 41 42 43 44 45 46 47 48 49 50

817
ASUS44 KLIX 290207
RWRLA
LOUISIANA WEATHER ROUNDUP
NATIONAL WEATHER SERVICE NEW ORLEANS LA
900 PM CDT SAT MAR 28 2015

NOTE: "FAIR" INDICATES FEW OR NO CLOUDS BELOW 12,000 FEET WITH NO
      SIGNIFICANT WEATHER AND/OR OBSTRUCTIONS TO VISIBILITY.
      SKY/WX - SKY CONDITION AND SIGNIFICANT WEATHER.
      TMP - AIR TEMPERATURE.    DP   - DEWPOINT TEMPERATURE.
      RH  - RELATIVE HUMIDITY.  PRES - PRESSURE.
      HX  - HEAT INDEX.         WCI  - WIND CHILL INDEX.

*  THESE STATIONS ARE NOT NWS OR FAA STATIONS AND ARE NOT UNDER
   NWS QUALITY CONTROL.

LAZ040-048-061>063-065-066-069-290300-
SOUTHEAST LOUISIANA

CITY           SKY/WX    TMP DP  RH WIND       PRES   REMARKS
N.O. AUDUBON   NOT AVBL
N.O. INTL ARPT CLEAR     59  46  62 SE7       30.21R
N.O. LAKEFRONT CLEAR     60  48  64 SE12      30.22R
SLIDELL        CLEAR     56  48  74 S5        30.21R
BATON ROUGE    CLEAR     60  49  66 SE9       30.18R
BOOTHVILLE     CLEAR     57  50  77 E5        30.24R
BELLE CHASSE   CLEAR     58  50  75 SE8       30.21R
BOGALUSA*        N/A     61  44  53 S9        30.22R
GALLIANO*      CLEAR     59  54  83 CALM      30.22R
NEW ROADS*     FAIR      63  49  61 S7        30.17R
GONZALES*      FAIR      62  52  70 S7        30.19R
HAMMOND*       CLEAR     57  48  72 SE6       30.22R
HOUMA*         CLEAR     56  52  86 SE3       30.21R
PORT FOURCHON* CLEAR     64  55  72 SE10      30.25R

$$

LAZ041-044-053-054-290300-
SOUTHWEST LOUISIANA

CITY           SKY/WX    TMP DP  RH WIND       PRES   REMARKS
LAKE CHARLES   CLEAR     62  57  83 S6        30.13R
LAFAYETTE      CLEAR     62  55  77 S8        30.16S
PATTERSON      CLEAR     59  52  77 SE6       30.19R
SALT POINT       N/A     61  56  83 SE6       30.18R
NEW IBERIA     CLEAR     59  54  83 SE8       30.18R
CHENAULT AIRPK CLEAR     63  55  77 S8          N/A

$$

LAZ027-028-290300-
CENTRAL LOUISIANA

CITY           SKY/WX    TMP DP  RH WIND       PRES   REMARKS
FORT POLK      CLEAR     65  56  72 S8        30.10R
ALEXANDRIA INT CLEAR     64  53  67 S7        30.12R
ALEXANDRIA     CLEAR     63  51  65 S5        30.14R

$$

LAZ001-002-290300-
NORTHWEST LOUISIANA

CITY           SKY/WX    TMP DP  RH WIND       PRES   REMARKS
SHREVEPORT     CLEAR     66  48  52 E6        30.07R
BARKSDALE AFB  CLEAR     65  47  52 E15G22    30.09R
DTN SHREVEPORT CLEAR     65  46  50 E12       30.09R

$$

LAZ014-016-290300-
NORTHEAST LOUISIANA

CITY           SKY/WX    TMP DP  RH WIND       PRES   REMARKS
MONROE         CLEAR     53  38  56 NE12      30.20R
TALLULAH       LGT RAIN  53  35  50 E15       30.21R

$$




USA.gov is the U.S. government's official web portal to all federal, state and local government web resources and services.